Showing default

OPS 9312 (IDSCS 2), 2216

Orbit data source: Space-Track

OPS 9312 (IDSCS 2), 2216 is a payload satellite owned by USAF SSD (US) in GEO that was launched on Thu, 16 Jun 1966 UTC via a TITAN IIIC launch vehicle from the Air Force Eastern Test Range (AFETR). Payload-class satellites include a variety of spacecraft equipped with specific instruments for various scientific and technological missions. These include communications satellites like Starlink; space stations such as the ISS; scientific satellites like the Hubble; Earth observation satellites from companies like Planet Labs, Umbra, and HawkEye 360; GPS; miniature CubeSats for education and research; and military/defense satellites.

Loading next visibility...
Identifier
2216, 1966-053C
Orbit
GEO
Country
Flag of USUS
Related business
Manufacturer
Philco-Ford WDL
Mission
Non-operational spacecraft
Bus & Motor
IDCSP, Unknown motor
Mass
45 kg wet, 45 kg dry
Launch date (UTC)
1966-06-16 (60 years ago)
Launch vehicle
TITAN IIIC
Launch site
Air Force Eastern Test Range (AFETR)
Object type
Payload
Rocket body
Debris
Shape & HBR
Unknown
Radar Cross Section
Medium (>0.1 m² and <1 m²)

Expand to show TLE details & history
Last TLE update: 16 hours ago

TLE from 16 hours ago
0 OPS 9312 (IDSCS 2)
1 02216U 66053C   26111.56249552 -.00000061  00000-0  00000-0 0  9998
2 02216   8.5556  44.3849 0032322 219.3944 314.3494  1.07849473 48652
Epoch: 2026-04-21T13:29Z
TLE epoch observation values (Epoch: 2026-04-21T13:29:59.612Z)
Latitude
0.95518°
Longitude
165.81027°
Altitude
33,696.143 km
Speed
3.157 km/s
True Right ascension
14h 31m 46s
True Declination
0° 57' 15"
Sunlit
Object was in daylight at epoch
Visualization orbit readout
Latitude
Unknown
Longitude
Unknown
Altitude
Unknown
Speed
Unknown
Apparent Right ascension
Unknown
Apparent Declination
Unknown
Sunlit
N/A
Visualization observer readout
Local Sidereal Time
12:27:25
Azimuth
Unknown
Elevation
Unknown
Doppler factor
Unknown
Orbital elements
Apogee altitude
33,918.582 km
Perigee altitude
33,658.927 km
Semi-major axis
40,166.891 km
Eccentricity
0.00323
Inclination
8.5556°
RAAN
44.3849°
Arg. of periapsis
219.3944°
True anomaly
314.08379°
Mean anomaly
314.3494°
Eccentric anomaly
314.21667°
Mean motion
0.26961 °/min
Orbital period
1,335.25 mins
BSTAR
0
Loading maneuver chart data...
Computing Atmospheric mass density...
Loading historical data...
Loading historical data...
Loading historical data...
Loading historical data...
Loading historical data...
Loading historical data...
Loading historical data...

Documentation

Showing up to 5 results
|